This demonstration page uses our WeatherBlox Daily Observations layout. Learn more.

38.89511, -77.03637

Hourly Observations for January 7, 2018

Temp ( °F °C ) Dew Point ( °F °C ) Humidity (%) Winds ( mph kmh ) Pressure ( in mb ) Visibility ( mi km ) Precip ( " mm )
12:52 am 00:52 Clear 12 -11.1 -5 -20.6 46 46 NNW 9 15 30.6 1036 10 16.0934 0 0
1:52 am 01:52 Clear 11 -11.7 -5 -20.6 48 48 NW 13 20 30.62 1037 10 16.0934 0 0
2:52 am 02:52 Clear 11 -11.7 -5 -20.6 48 48 NW 10 17 30.64 1038 10 16.0934 0 0
3:52 am 03:52 Clear 11 -11.7 -5 -20.6 48 48 NNW 6 9 30.65 1038 10 16.0934 0 0
4:52 am 04:52 Clear 10 -12.2 -4 -20 53 53 NNW 9 15 30.64 1038 10 16.0934 0 0
5:52 am 05:52 Clear 9 -12.8 -4 -20 55 55 NNW 8 13 30.66 1038 10 16.0934 0 0
6:52 am 06:52 Clear 10 -12.2 -4 -20 53 53 NW 9 15 30.67 1039 10 16.0934 0 0
7:52 am 07:52 Sunny 10 -12.2 -4 -20 53 53 NNW 8 13 30.69 1039 10 16.0934 0 0
8:52 am 08:52 Sunny 13 -10.6 -3 -19.4 49 49 N 6 9 30.7 1040 10 16.0934 0 0
9:52 am 09:52 Sunny 15 -9.4 -3 -19.4 44 44 N 7 11 30.71 1040 10 16.0934 0 0
10:52 am 10:52 Mostly Sunny 18 -7.8 -4 -20 37 37 N 6 9 30.69 1039 10 16.0934 0 0
11:52 am 11:52 Mostly Sunny 19 -7.2 -4 -20 36 36 Calm 30.64 1038 10 16.0934 0 0
12:52 pm 12:52 Partly Cloudy 21 -6.1 -3 -19.4 34 34 SE 6 9 30.6 1036 10 16.0934 0 0
1:52 pm 13:52 Mostly Cloudy 22 -5.6 -1 -18.3 36 36 S 10 17 30.57 1035 10 16.0934 0 0
2:52 pm 14:52 Mostly Cloudy 23 -5 -5 -20.6 29 29 S 9 15 30.55 1035 10 16.0934 0 0
3:52 pm 15:52 Mostly Cloudy 23 -5 -3 -19.4 32 32 SSW 12 19 30.55 1035 10 16.0934 0 0
4:52 pm 16:52 Mostly Cloudy 22 -5.6 -2 -18.9 35 35 S 12 19 30.53 1034 10 16.0934 0 0
5:52 pm 17:52 Cloudy 21 -6.1 1 -17.2 41 41 S 12 19 30.53 1034 10 16.0934 0 0
6:52 pm 18:52 Cloudy 20 -6.7 2 -16.7 45 45 S 9 15 30.52 1034 10 16.0934 0 0
7:52 pm 19:52 Mostly Cloudy 19 -7.2 3 -16.1 49 49 S 10 17 30.5 1033 10 16.0934 0 0
8:52 pm 20:52 Cloudy 20 -6.7 4 -15.6 50 50 S 14 22 30.48 1032 10 16.0934 0 0
9:52 pm 21:52 Mostly Cloudy 19 -7.2 1 -17.2 45 45 SSW 8 13 30.47 1032 10 16.0934 0 0
10:52 pm 22:52 Mostly Cloudy 19 -7.2 1 -17.2 45 45 S 12 19 30.45 1031 10 16.0934 0 0
11:52 pm 23:52 Mostly Cloudy 20 -6.7 2 -16.7 45 45 S 9 15 30.41 1030 10 16.0934 0 0

Powered by AerisWeather